Location: Newark
(58.9986°N, 38.5006°E)
Time: 23:18:42
(UTC+00:00)

N. Korean satellite - Pass Details

Date: 14 December 2019
Orbit: 454 x 508 km, 97.2° (Epoch: 20 January)

Event Time Altitude Azimuth Distance (km) Brightness Sun altitude
Rises 13:57:32 0° 160° (SSE) 2,599 10.4 -9.8°
Reaches altitude 10° 13:59:38 10° 159° (SSE) 1,714 9.4 -10.0°
Maximum altitude 14:03:19 79° 72° (ENE) 516 6.5 -10.4°
Drops below altitude 10° 14:06:59 10° 347° (NNW) 1,702 9.2 -10.9°
Sets 14:09:03 0° 346° (NNW) 2,580 10.1 -11.1°
